Regional Weather Roundup
Issued by NWS

Home | Current Version | Previous Version | Graphics & Text | Print | Product List | Glossary On
Versions: 1 2 3 4 5 6 7 8 9 10 11 12 13 14 15 16 17 18 19 20 21 22 23 24 25 26 27 28 29 30 31 32 33 34 35 36 37 38 39 40 41 42 43 44 45 46 47 48 49 50
000
ASUS43 KTOP 252108
RWRKS

WEATHER ROUNDUP FOR KANSAS
NATIONAL WEATHER SERVICE GOODLAND KS
400 PM CDT TUE JUL 25 2017

NOTE:  "FAIR" INDICATES FEW OR NO CLOUDS BELOW 12,000 FEET WITH NO
SIGNIFICANT WEATHER AND/OR OBSTRUCTIONS TO VISIBILITY.

KSZ001>006-013>018-027>032-041>047-252200-
NORTHWEST KANSAS

CITY           SKY/WX    TMP DP  RH WIND       PRES   REMARKS
GOODLAND       SUNNY     96  64  34 S16G25    29.96F HX  98
HAYS           MOSUNNY   99  69  37 SE21G26   29.94F HX 105
HILL CITY      MOSUNNY  101  66  31 S17G23    29.94F HX 105
RUSSELL        MOSUNNY   99  66  33 S16G26    29.95F HX 103
$$

KSZ061>065-074>080-084>089-252200-
SOUTHWEST KANSAS

CITY           SKY/WX    TMP DP  RH WIND       PRES   REMARKS
DODGE CITY     MOSUNNY   99  63  30 S20G28    29.99F HX 101
ELKHART          N/A     96  56  26 S18         N/A
GARDEN CITY    SUNNY     99  63  30 S20G30    29.97F HX 101
GREAT BEND     MOSUNNY  100  69  36 S22G29    29.97F HX 106
LIBERAL        MOSUNNY   98  63  31 S20G26    29.98F HX 100
PRATT          MOSUNNY   94  64  37 S17G26    29.99F HX  96
$$

KSZ066>073-081>083-090>101-252200-
SOUTHEAST KANSAS

CITY           SKY/WX    TMP DP  RH WIND       PRES   REMARKS
CHANUTE        MOSUNNY   96  69  41 S16       30.04F HX 102
COFFEYVILLE    MOSUNNY   95  72  47 S10       30.03F HX 103
HUTCHINSON     SUNNY     99  62  29 S12G21    29.98F HX 100
MEDICINE LODGE   N/A     99  65  32 S15G22    29.96F HX 102
NEWTON         MOSUNNY   96  68  39 S12G20    30.02F HX 101
PARSONS        MOSUNNY   94  71  47 S8        30.05F HX 101
WICHITA INTL   MOSUNNY   99  64  31 SE14      29.99F HX 101
WICHITA JABRA  MOSUNNY   96  66  37 S14       30.00F HX  99
WICHITA MCCONL SUNNY     97  65  35 S15       30.01F HX  99
WINFIELD       SUNNY     96  68  39 SE10G22   30.01F HX 101
$$

KSZ007>012-019>026-033>040-048>060-102>105-252200-
NORTHEAST KANSAS

CITY           SKY/WX    TMP DP  RH WIND       PRES   REMARKS
CONCORDIA      MOSUNNY   97  65  34 S18G25    29.98F HX  99
EMPORIA        SUNNY     95  71  45 S15G21    30.03F HX 102
LAWRENCE       SUNNY     95  73  48 SE10      30.03F HX 104
MANHATTAN      SUNNY     99  66  33 S10       29.98F HX 103
MARYSVILLE     SUNNY     99  66  34 S10G22    29.99F HX 102
OLATHE IND     SUNNY     93  72  50 S10       30.05F HX 101
OLATHE EXE     MOSUNNY   91  74  57 S6        30.05F HX 100
SALINA         SUNNY    101  63  28 SE16G26   29.97F HX 103
TOPEKA BILLARD MOSUNNY   94  74  52 S13       30.01F HX 104
TOPEKA FORBES  MOSUNNY   95  72  47 VRB7      30.03F HX 103
$$




USA.gov is the U.S. government's official web portal to all federal, state and local government web resources and services.